Location: Baia Mare
(47.6567°N, 23.5850°E)
Time: 07:15:38
(UTC+03:00)

ISS - Pass Details

Date: 20 July 2018
Orbit: 402 x 408 km, 51.6° (Epoch: 23 July)

Event Time Altitude Azimuth Distance (km) Brightness Sun altitude
Rises 01:39:07 0° 278° (W) 2,326 0.1 -21.6°
Reaches altitude 10° 01:41:17 10° 286° (WNW) 1,467 -0.9 -21.6°
Maximum altitude 01:44:24 39° 357° (N) 625 -2.4 -21.6°
Drops below altitude 10° 01:47:32 10° 69° (ENE) 1,471 -0.7 -21.5°
Sets 01:49:42 0° 77° (ENE) 2,333 0.3 -21.5°
